Location: Phoenix
(33.4480°N, 112.0730°W)
Time: 21:37:49
(UTC-07:00)

ISS - All Passes

Search period start: 28 July 2014 00:00
Search period end: 07 August 2014 00:00
Orbit: 411 x 419 km, 51.6° (Epoch: 29 July)

Date Brightness Start Highest point End Pass type
(mag) Time Alt. Az. Time Alt. Az. Time Alt. Az.
28 Jul - 06:20:44 10° NNW 06:23:54 38° NE 06:27:03 10° ESE daylight
28 Jul - 07:58:19 10° W 08:00:21 15° SW 08:02:24 10° SSW daylight
28 Jul - 22:59:53 10° SW 23:03:11 64° NW 23:06:30 10° NE night (unlit)
29 Jul - 05:32:16 10° NNW 05:34:59 22° NE 05:37:42 10° E daylight
29 Jul - 07:08:44 10° WNW 07:11:42 29° SW 07:14:39 10° SSE daylight
29 Jul - 22:11:07 10° SW 22:14:23 62° SE 22:17:42 10° NE night (unlit)
29 Jul - 23:49:31 10° WNW 23:51:23 14° NNW 23:53:16 10° N night (unlit)
30 Jul - 04:44:03 10° N 04:46:00 14° NNE 04:47:55 10° ENE visible
30 Jul - 06:19:40 10° NW 06:22:59 60° SW 06:26:16 10° SE daylight
30 Jul - 21:22:44 10° SSW 21:25:40 29° SE 21:28:37 10° ENE night (unlit)
30 Jul - 22:59:43 10° W 23:02:23 22° NW 23:05:04 10° NNE night (unlit)
31 Jul - 05:30:50 10° NW 05:34:11 65° NE 05:37:30 10° SE daylight
31 Jul - 20:34:58 10° SSE 20:37:00 15° SE 20:39:02 10° E visible
31 Jul - 22:10:20 10° WSW 22:13:27 37° NW 22:16:35 10° NNE night (unlit)
01 Aug - 04:42:12 10° NNW 04:45:18 34° NE 04:48:23 10° ESE visible
01 Aug - 06:19:30 10° W 06:21:48 17° SW 06:24:06 10° S daylight
01 Aug - 21:21:17 10° SW 21:24:35 74° NW 21:27:55 10° NE visible
01 Aug - 23:01:25 10° NNW 23:01:48 10° NNW 23:02:11 10° NNW night (unlit)
02 Aug - 03:53:45 10° NNW 03:56:21 20° NE 03:58:56 10° E visible
02 Aug - 05:30:03 10° WNW 05:33:07 33° SW 05:36:10 10° SSE daylight
02 Aug - 20:32:33 10° SSW 20:35:47 53° SE 20:39:02 10° NE visible
02 Aug - 22:10:40 10° WNW 22:12:43 15° NNW 22:14:47 10° N visible
03 Aug - 03:05:36 10° N 03:07:19 13° NNE 03:09:01 10° ENE visible
03 Aug - 04:41:00 10° NW 04:44:21 71° SW 04:47:41 10° SE visible
03 Aug - 19:44:14 10° S 19:47:03 26° SE 19:49:52 10° ENE daylight
03 Aug - 21:20:56 10° W 21:23:42 24° NW 21:26:29 10° NNE visible
04 Aug - 03:52:12 10° NW 03:55:31 56° NE 03:58:48 10° ESE visible
04 Aug - 05:31:28 10° WSW 05:31:49 10° SW 05:32:10 10° SW daylight
04 Aug - 18:56:40 10° SSE 18:58:21 13° SE 19:00:04 10° E daylight
04 Aug - 20:31:36 10° WSW 20:34:45 42° NW 20:37:57 10° NNE visible
05 Aug - 03:03:35 10° NNW 03:06:36 30° NE 03:09:36 10° ESE visible
05 Aug - 04:40:38 10° W 04:43:09 20° SW 04:45:39 10° S visible
05 Aug - 19:42:35 10° SW 19:45:53 85° NW 19:49:13 10° NE visible
05 Aug - 21:22:04 10° NW 21:23:02 11° NNW 21:24:02 10° N visible
06 Aug - 02:15:09 10° NNW 02:17:36 19° NNE 02:20:03 10° E night (unlit)
06 Aug - 03:51:16 10° WNW 03:54:25 38° SW 03:57:33 10° SSE night (unlit)
06 Aug - 18:53:54 10° SSW 18:57:04 45° SE 19:00:16 10° ENE daylight
06 Aug - 20:31:43 10° WNW 20:33:57 17° NNW 20:36:11 10° N visible
